sat.trackr.live / text

‹ back to catalog

YAM-6

NORAD 59126 · 2024-043AE

PAYLOAD ACTIVE UNKNOWN

§ Identity

Operator
Country
US
Launch date
2024-03-04
Launch site
AFWTR
Launch vehicle
Mass (kg)
RCS (m²)

External: N2YO · Heavens-Above · Gunter

§ Orbital elements

Epoch: 2026-05-24T22:33:11.104704Z

Period
93.71 min
Inclination
97.5531°
Eccentricity
0.0007121
Mean motion
15.36724141 rev/d
Perigee alt
450.9 km
Apogee alt
460.7 km
Semi-major
6,833.9 km
B*
2.1191e-4
RAAN
285.4312°
Arg perigee
318.6175°
Mean anomaly
41.4529°
Rev number
12,374

§ Raw data

YAM-61 59126U 24043AE  26144.93971186  .00007522  00000+0  21191-3 0  99992 59126  97.5531 285.4312 0007121 318.6175  41.4529 15.36724141123748

JSON: /api/v1/satellites/59126 · /tle

For live sub-satellite position, see the globe view (requires WebGL).

§ Visibility from observer

Set your observer location to see the next 7 days of passes ≥ 10°. The values pass through the URL so the page stays shareable.

No JS? Fill the form by hand. The geolocation button needs JavaScript.

§ Radio — SatNOGS DB

ModeDescriptionDownlinkUplink
FM Mode S - Downlink 2.277 GHz
FM Mode U - Backup Downlink 401.500 MHz
FM Mode U - Downlink 400.875 MHz
FM Mode X - Downlink 8.125 GHz
FM Mode U - Backup Downlink (inactive) 401.017 MHz
FM Mode U - Backup Downlink (inactive) 401.850 MHz
FM Mode U - Backup Downlink (inactive) 401.155 MHz
FM Mode U - Backup Downlink (inactive) 401.225 MHz
FM Mode U - Backup Downlink (inactive) 401.375 MHz
FM Mode U - Backup Downlink (inactive) 401.438 MHz
FM Mode U - Backup Downlink (inactive) 401.015 MHz

11 transmitters · refreshed weekly from db.satnogs.org